Home   Weather   Sunrise Manor   Past weeks

Flag for USA Past Weather in Sunrise Manor, Nevada, USA — Yesterday and Last 2 Weeks

Now
57 °F

Sunny.


Feels Like: 57 °F
Forecast: 39 / 62 °F
Wind: 3 mph from East

Location: North Las Vegas Airport

Current Time: Dec 6, 2016 at 1:54:56 pm

Latest Report: Dec 6, 2016 at 12:53 pm


Visibility: 10 mi

Pressure: 29.82 "Hg (27.92 "Hg at 555m altitude)

Humidity: 21%

Dew Point: 17 °F

Location of Sunrise ManorLocation

Past Weather in Sunrise Manor — Graph

°F

Sunrise Manor Temperature Yesterday

Maximum temperature yesterday: 58 °F (at 1:53 pm)
Minimum temperature yesterday: 38 °F (at 4:53 am)
Average temperature yesterday: 48 °F

High & Low Weather Summary for the Past Weeks

 TemperatureHumidityPressure
High64 °F (Nov 22, 1:53 pm)66% (Nov 27, 1:53 pm)30.45 "Hg (Nov 27, 1:53 pm)
Low36 °F (Nov 30, 6:53 am)11% (Dec 3, 12:53 pm)29.71 "Hg (Nov 26, 10:53 pm)
Average50 °F33%30.09 "Hg
* Reported Nov 21 12:53 pm — Dec 6 12:53 pm, Sunrise Manor, Weather by CustomWeather, © 2016

Note: Actual official high and low records may vary slightly from our data, if they occured in-between our weather recording intervals... More about our weather records

Advertising

Sunrise Manor Weather History for the Previous 24 Hours

Scroll right to see more
 ConditionsComfort  
Time TempWeatherWind HumidityBarometerVisibility
12:53 pm
Tue, Dec 6
57 °FSunny.3 mph21%29.82 "Hg10 mi
11:53 am56 °FSunny.5 mph24%29.86 "Hg10 mi
10:53 am54 °FSunny.3 mph25%29.90 "Hg10 mi
9:53 am51 °FSunny.No wind28%29.92 "Hg10 mi
8:53 am51 °FSunny.5 mph27%29.91 "Hg10 mi
7:53 am44 °FSunny.6 mph31%29.91 "Hg10 mi
6:53 am41 °FSunny.8 mph36%29.90 "Hg10 mi
5:53 am41 °FClear.8 mph38%29.88 "Hg10 mi
4:53 am43 °FClear.5 mph42%29.86 "Hg10 mi
3:53 am43 °FClear.5 mph38%29.87 "Hg10 mi
2:53 am44 °FClear.5 mph37%29.88 "Hg10 mi
1:53 am44 °FClear.7 mph38%29.87 "Hg10 mi
12:53 am42 °FClear.6 mph39%29.88 "Hg10 mi
11:53 pm
Mon, Dec 5
42 °FClear.6 mph39%29.90 "Hg10 mi
10:53 pm42 °FClear.6 mph38%29.92 "Hg10 mi
9:53 pm45 °FClear.6 mph38%29.93 "Hg10 mi
8:53 pm46 °FClear.5 mph33%29.93 "Hg10 mi
7:53 pm49 °FClear.3 mph33%29.93 "Hg10 mi
6:53 pm51 °FClear.No wind28%29.93 "Hg10 mi
5:53 pm54 °FClear.No wind25%29.93 "Hg10 mi
4:53 pm57 °FClear.No wind20%29.93 "Hg10 mi
3:53 pm57 °FSunny.No wind20%29.93 "Hg10 mi
2:53 pm58 °FSunny.No wind18%29.93 "Hg10 mi
1:53 pm58 °FSunny.5 mph18%29.94 "Hg10 mi
Weather by CustomWeather, © 2016

See weather overviewHow to use our weather pages